Location: ??????
(41.3164°N, 22.6615°E)
Time: 20:56:39
(UTC+00:00)

CAS-4A - Pass Details

Date: 05 July 2022
Orbit: 521 x 536 km, 43.0° (Epoch: 19 August)

Event Time Altitude Azimuth Distance (km) Brightness Sun altitude
Exits shadow 01:11:09 13° 278° (W) 1,547 ? -16.3°
Maximum altitude 01:14:37 67° 360° (N) 570 ? -15.9°
Drops below altitude 10° 01:18:38 10° 83° (E) 1,764 ? -15.4°
Sets 01:20:53 0° 86° (E) 2,656 ? -15.1°
